Back to Top

Language: 

My Weather Underground Personal Weather Station Historical Data with Graphs...

Delerius Weather Station Historical Data
Daily Summary for October 12, 2017 Units:  Metric    English   Both
« Previous Day
Next Day »
Daily Weekly Monthly Yearly Custom
  High: Low: Average:
Temperature: 15.8 °C 9.7 °C 12.4 °C
Dew Point: 11.1 °C 6.8 °C 8.3 °C
Humidity: 85 % 63 % 76 %
Wind Speed: 24.1 km/h 1.6 km/h 12.7 km/h
Wind Gust: 43.5 km/h - -
Wind:- - WSW
Pressure: 1017.8 hPa 1008.7 hPa -
Precipitation: 0 mm    
Historical Graphs
 
 
Tabular Data for October 12, 2017
Time Temperature Dew Point Pressure Wind Wind Speed Wind Gust Humidity Rainfall Rate (Hourly) solar Conditions
00:00 10.8 °C 7.1 °C 1008.7 hPa West 17.7 km/h 43.5 km/h 78 % 0 mm 0 W/m2
00:05 10.8 °C 6.9 °C 1009 hPa West 19.3 km/h 35.4 km/h 77 % 0 mm 0 W/m2
00:10 10.8 °C 7.1 °C 1009 hPa West 17.7 km/h 33.8 km/h 78 % 0 mm 0 W/m2
00:15 10.7 °C 7.2 °C 1009.4 hPa West 14.5 km/h 30.6 km/h 79 % 0 mm 0 W/m2
00:20 10.7 °C 7.2 °C 1009.4 hPa West 14.5 km/h 32.2 km/h 79 % 0 mm 0 W/m2
00:25 10.6 °C 7.1 °C 1009.4 hPa West 14.5 km/h 32.2 km/h 79 % 0 mm 0 W/m2
00:30 10.5 °C 7.2 °C 1009.4 hPa West 12.9 km/h 25.7 km/h 80 % 0 mm 0 W/m2
00:35 10.4 °C 7.1 °C 1009.4 hPa West 11.3 km/h 24.1 km/h 80 % 0 mm 0 W/m2
00:40 10.3 °C 7 °C 1009.4 hPa West 9.7 km/h 16.1 km/h 80 % 0 mm 0 W/m2
00:45 10.3 °C 7.2 °C 1009.7 hPa West 8 km/h 16.1 km/h 81 % 0 mm 0 W/m2
00:50 10.2 °C 7.1 °C 1009.7 hPa West 4.8 km/h 16.1 km/h 81 % 0 mm 0 W/m2
00:55 10.2 °C 7.3 °C 1009.7 hPa West 6.4 km/h 16.1 km/h 82 % 0 mm 0 W/m2
01:00 10.1 °C 7.2 °C 1009.7 hPa West 6.4 km/h 12.9 km/h 82 % 0 mm 0 W/m2
01:05 10.1 °C 7.3 °C 1009.7 hPa West 6.4 km/h 12.9 km/h 83 % 0 mm 0 W/m2
01:10 10 °C 7.2 °C 1009.7 hPa WNW 4.8 km/h 12.9 km/h 83 % 0 mm 0 W/m2
01:15 9.9 °C 7.2 °C 1010 hPa West 4.8 km/h 14.5 km/h 83 % 0 mm 0 W/m2
01:25 10 °C 7.2 °C 1010 hPa WSW 9.7 km/h 16.1 km/h 83 % 0 mm 0 W/m2
01:31 10.1 °C 7.3 °C 1010.4 hPa West 9.7 km/h 16.1 km/h 83 % 0 mm 0 W/m2
01:36 10.1 °C 7.3 °C 1010.4 hPa West 9.7 km/h 16.1 km/h 83 % 0 mm 0 W/m2
01:41 10 °C 7.2 °C 1010.4 hPa West 9.7 km/h 24.1 km/h 83 % 0 mm 0 W/m2
01:46 10 °C 7.1 °C 1010.4 hPa West 11.3 km/h 24.1 km/h 82 % 0 mm 0 W/m2
01:56 10 °C 6.9 °C 1010.7 hPa West 11.3 km/h 29 km/h 81 % 0 mm 0 W/m2
02:01 9.9 °C 6.9 °C 1010.7 hPa West 11.3 km/h 20.9 km/h 82 % 0 mm 0 W/m2
02:06 9.9 °C 6.9 °C 1010.7 hPa West 12.9 km/h 20.9 km/h 82 % 0 mm 0 W/m2
02:11 9.9 °C 6.9 °C 1011.1 hPa West 12.9 km/h 19.3 km/h 82 % 0 mm 0 W/m2
02:16 9.9 °C 6.9 °C 1011.1 hPa West 11.3 km/h 19.3 km/h 82 % 0 mm 0 W/m2
02:21 9.9 °C 6.9 °C 1011.1 hPa West 11.3 km/h 19.3 km/h 82 % 0 mm 0 W/m2
02:26 9.8 °C 6.9 °C 1011.1 hPa West 9.7 km/h 14.5 km/h 82 % 0 mm 0 W/m2
02:31 9.7 °C 6.9 °C 1011.1 hPa WSW 11.3 km/h 17.7 km/h 83 % 0 mm 0 W/m2
02:36 9.7 °C 6.8 °C 1011.1 hPa WSW 11.3 km/h 20.9 km/h 82 % 0 mm 0 W/m2
02:41 9.7 °C 6.9 °C 1011.4 hPa West 11.3 km/h 20.9 km/h 83 % 0 mm 0 W/m2
02:46 9.7 °C 6.9 °C 1011.4 hPa West 11.3 km/h 17.7 km/h 83 % 0 mm 0 W/m2
02:51 9.7 °C 6.8 °C 1011.4 hPa West 12.9 km/h 20.9 km/h 82 % 0 mm 0 W/m2
02:56 9.8 °C 6.9 °C 1011.4 hPa West 14.5 km/h 24.1 km/h 82 % 0 mm 0 W/m2
03:01 9.8 °C 6.9 °C 1011.4 hPa West 14.5 km/h 24.1 km/h 82 % 0 mm 0 W/m2
03:06 9.8 °C 6.9 °C 1011.4 hPa West 14.5 km/h 22.5 km/h 82 % 0 mm 0 W/m2
03:11 9.8 °C 6.9 °C 1011.4 hPa WSW 14.5 km/h 22.5 km/h 82 % 0 mm 0 W/m2
03:16 9.8 °C 6.9 °C 1011.4 hPa WSW 14.5 km/h 22.5 km/h 82 % 0 mm 0 W/m2
03:21 9.8 °C 6.9 °C 1011.4 hPa WSW 14.5 km/h 22.5 km/h 82 % 0 mm 0 W/m2
03:26 9.8 °C 6.9 °C 1011.4 hPa WSW 12.9 km/h 22.5 km/h 82 % 0 mm 0 W/m2
03:31 9.7 °C 6.8 °C 1011.7 hPa West 12.9 km/h 22.5 km/h 82 % 0 mm 0 W/m2
03:36 9.7 °C 6.9 °C 1011.7 hPa WSW 11.3 km/h 19.3 km/h 83 % 0 mm 0 W/m2
03:41 9.7 °C 6.9 °C 1011.7 hPa WSW 12.9 km/h 24.1 km/h 83 % 0 mm 0 W/m2
03:46 9.7 °C 7.1 °C 1011.7 hPa WSW 14.5 km/h 24.1 km/h 84 % 0 mm 0 W/m2
03:51 9.8 °C 7.2 °C 1011.7 hPa West 14.5 km/h 24.1 km/h 84 % 0 mm 0 W/m2
03:56 9.8 °C 7.2 °C 1012.1 hPa West 14.5 km/h 25.7 km/h 84 % 0 mm 0 W/m2
04:02 9.8 °C 7.2 °C 1012.1 hPa WSW 16.1 km/h 25.7 km/h 84 % 0 mm 0 W/m2
04:07 9.9 °C 7.5 °C 1012.1 hPa West 17.7 km/h 25.7 km/h 85 % 0 mm 0 W/m2
04:12 10 °C 7.4 °C 1012.1 hPa West 16.1 km/h 29 km/h 84 % 0 mm 0 W/m2
04:17 10 °C 7.4 °C 1012.1 hPa West 14.5 km/h 29 km/h 84 % 0 mm 0 W/m2
04:22 9.9 °C 7.3 °C 1012.1 hPa West 12.9 km/h 25.7 km/h 84 % 0 mm 0 W/m2
04:23 9.9 °C 7.3 °C 1012.1 hPa West 14.5 km/h 25.7 km/h 84 % 0 mm 0 W/m2
04:26 9.9 °C 7.5 °C 1012.1 hPa West 12.9 km/h 22.5 km/h 85 % 0 mm 0 W/m2
04:31 9.9 °C 7.5 °C 1012.1 hPa West 14.5 km/h 22.5 km/h 85 % 0 mm 0 W/m2
04:36 9.9 °C 7.5 °C 1012.1 hPa West 12.9 km/h 22.5 km/h 85 % 0 mm 0 W/m2
04:41 9.9 °C 7.5 °C 1012.4 hPa WSW 11.3 km/h 19.3 km/h 85 % 0 mm 0 W/m2
04:46 9.9 °C 7.5 °C 1012.4 hPa WSW 11.3 km/h 22.5 km/h 85 % 0 mm 0 W/m2
04:51 9.9 °C 7.5 °C 1012.4 hPa WSW 11.3 km/h 22.5 km/h 85 % 0 mm 0 W/m2
04:56 9.9 °C 7.5 °C 1012.4 hPa WSW 11.3 km/h 19.3 km/h 85 % 0 mm 0 W/m2
05:01 9.9 °C 7.5 °C 1012.4 hPa WSW 11.3 km/h 19.3 km/h 85 % 0 mm 0 W/m2
05:06 9.9 °C 7.3 °C 1012.8 hPa WSW 12.9 km/h 22.5 km/h 84 % 0 mm 0 W/m2
05:11 9.9 °C 7.3 °C 1012.8 hPa WSW 14.5 km/h 22.5 km/h 84 % 0 mm 0 W/m2
05:16 9.9 °C 7.3 °C 1012.8 hPa WSW 12.9 km/h 24.1 km/h 84 % 0 mm 0 W/m2
05:21 9.9 °C 7.3 °C 1013.1 hPa WSW 12.9 km/h 25.7 km/h 84 % 0 mm 0 W/m2
05:26 9.9 °C 7.2 °C 1013.1 hPa WSW 14.5 km/h 25.7 km/h 83 % 0 mm 0 W/m2
05:31 10 °C 7.2 °C 1013.1 hPa WSW 14.5 km/h 24.1 km/h 83 % 0 mm 0 W/m2
05:36 10.1 °C 7.3 °C 1013.1 hPa WSW 14.5 km/h 25.7 km/h 83 % 0 mm 0 W/m2
05:41 10.1 °C 7.3 °C 1013.1 hPa WSW 16.1 km/h 30.6 km/h 83 % 0 mm 0 W/m2
05:46 10.1 °C 7.3 °C 1013.4 hPa WSW 14.5 km/h 30.6 km/h 83 % 0 mm 0 W/m2
05:51 10.2 °C 7.4 °C 1013.4 hPa WSW 14.5 km/h 30.6 km/h 83 % 0 mm 0 W/m2
05:56 10.2 °C 7.4 °C 1013.4 hPa WSW 16.1 km/h 30.6 km/h 83 % 0 mm 0 W/m2
06:01 10.2 °C 7.4 °C 1013.4 hPa West 14.5 km/h 24.1 km/h 83 % 0 mm 0 W/m2
06:06 10.3 °C 7.6 °C 1013.4 hPa West 14.5 km/h 25.7 km/h 83 % 0 mm 0 W/m2
06:11 10.3 °C 7.6 °C 1013.8 hPa WSW 12.9 km/h 25.7 km/h 83 % 0 mm 0 W/m2
06:16 10.4 °C 7.6 °C 1013.8 hPa WSW 12.9 km/h 25.7 km/h 83 % 0 mm 0 W/m2
06:21 10.5 °C 7.9 °C 1013.8 hPa West 14.5 km/h 25.7 km/h 84 % 0 mm 0 W/m2
06:26 10.6 °C 7.8 °C 1013.8 hPa West 16.1 km/h 24.1 km/h 83 % 0 mm 0 W/m2
06:31 10.6 °C 7.8 °C 1013.8 hPa West 14.5 km/h 24.1 km/h 83 % 0 mm 0 W/m2
06:36 10.7 °C 7.9 °C 1013.8 hPa WSW 12.9 km/h 22.5 km/h 83 % 0 mm 0 W/m2
06:41 10.7 °C 7.9 °C 1013.8 hPa WSW 12.9 km/h 24.1 km/h 83 % 0 mm 0 W/m2
06:46 10.7 °C 7.9 °C 1014.1 hPa WSW 14.5 km/h 24.1 km/h 83 % 0 mm 0 W/m2
06:51 10.7 °C 7.9 °C 1014.1 hPa West 16.1 km/h 25.7 km/h 83 % 0 mm 0 W/m2
06:56 10.6 °C 7.8 °C 1014.1 hPa West 14.5 km/h 25.7 km/h 83 % 0 mm 0 W/m2
07:01 10.6 °C 7.8 °C 1014.1 hPa West 12.9 km/h 30.6 km/h 83 % 0 mm 0 W/m2
07:06 10.5 °C 7.7 °C 1014.1 hPa West 14.5 km/h 30.6 km/h 83 % 0 mm 0 W/m2
07:11 10.4 °C 7.6 °C 1014.1 hPa West 12.9 km/h 25.7 km/h 83 % 0 mm 0 W/m2
07:16 10.5 °C 7.9 °C 1014.4 hPa WSW 12.9 km/h 22.5 km/h 84 % 0 mm 0 W/m2
07:21 10.5 °C 7.9 °C 1014.4 hPa WSW 14.5 km/h 22.5 km/h 84 % 0 mm 0 W/m2
07:26 10.6 °C 7.8 °C 1014.8 hPa WSW 14.5 km/h 24.1 km/h 83 % 0 mm 0 W/m2
07:31 10.6 °C 7.8 °C 1014.8 hPa WSW 14.5 km/h 25.7 km/h 83 % 0 mm 0 W/m2
07:36 10.6 °C 7.8 °C 1014.8 hPa WSW 16.1 km/h 29 km/h 83 % 0 mm 7 W/m2
07:41 10.5 °C 7.7 °C 1014.8 hPa WSW 16.1 km/h 29 km/h 83 % 0 mm 9 W/m2
07:46 10.5 °C 7.7 °C 1014.8 hPa WSW 14.5 km/h 25.7 km/h 83 % 0 mm 12 W/m2
07:51 10.4 °C 7.6 °C 1015.1 hPa WSW 14.5 km/h 25.7 km/h 83 % 0 mm 18 W/m2
07:56 10.4 °C 7.6 °C 1015.1 hPa WSW 14.5 km/h 22.5 km/h 83 % 0 mm 21 W/m2
08:07 10.4 °C 7.6 °C 1015.5 hPa WSW 12.9 km/h 19.3 km/h 83 % 0 mm 26 W/m2
08:12 10.4 °C 7.6 °C 1015.5 hPa WSW 12.9 km/h 17.7 km/h 83 % 0 mm 30 W/m2
08:17 10.4 °C 7.6 °C 1015.5 hPa WSW 12.9 km/h 24.1 km/h 83 % 0 mm 33 W/m2
08:22 10.4 °C 7.6 °C 1015.8 hPa WSW 12.9 km/h 30.6 km/h 83 % 0 mm 37 W/m2
08:27 10.5 °C 7.7 °C 1015.5 hPa WSW 14.5 km/h 30.6 km/h 83 % 0 mm 32 W/m2
08:32 10.5 °C 7.7 °C 1015.5 hPa WSW 14.5 km/h 24.1 km/h 83 % 0 mm 32 W/m2
08:37 10.5 °C 7.7 °C 1015.8 hPa WSW 16.1 km/h 25.7 km/h 83 % 0 mm 40 W/m2
08:38 10.5 °C 7.7 °C 1015.8 hPa WSW 16.1 km/h 25.7 km/h 83 % 0 mm 47 W/m2
08:43 10.6 °C 7.8 °C 1015.8 hPa WSW 14.5 km/h 25.7 km/h 83 % 0 mm 63 W/m2
08:48 10.6 °C 7.8 °C 1016.1 hPa WSW 12.9 km/h 25.7 km/h 83 % 0 mm 70 W/m2
08:53 10.6 °C 7.8 °C 1016.1 hPa WSW 12.9 km/h 22.5 km/h 83 % 0 mm 63 W/m2
08:58 10.6 °C 7.8 °C 1016.1 hPa WSW 12.9 km/h 24.1 km/h 83 % 0 mm 118 W/m2
09:03 10.7 °C 7.9 °C 1016.1 hPa WSW 11.3 km/h 24.1 km/h 83 % 0 mm 123 W/m2
09:08 10.8 °C 8 °C 1016.1 hPa WSW 11.3 km/h 20.9 km/h 83 % 0 mm 230 W/m2
09:13 10.9 °C 7.9 °C 1016.1 hPa WSW 12.9 km/h 25.7 km/h 82 % 0 mm 113 W/m2
09:18 11 °C 8.1 °C 1016.1 hPa WSW 14.5 km/h 25.7 km/h 82 % 0 mm 102 W/m2
09:23 11.1 °C 7.9 °C 1016.1 hPa WSW 14.5 km/h 25.7 km/h 81 % 0 mm 144 W/m2
09:33 11.3 °C 8 °C 1016.1 hPa WSW 16.1 km/h 25.7 km/h 80 % 0 mm 123 W/m2
09:38 11.3 °C 8 °C 1016.1 hPa WSW 17.7 km/h 40.2 km/h 80 % 0 mm 120 W/m2
09:43 11.4 °C 8.1 °C 1016.1 hPa WSW 17.7 km/h 40.2 km/h 80 % 0 mm 139 W/m2
09:48 11.4 °C 8.1 °C 1016.1 hPa WSW 16.1 km/h 29 km/h 80 % 0 mm 144 W/m2
09:53 11.5 °C 8.2 °C 1016.1 hPa West 16.1 km/h 30.6 km/h 80 % 0 mm 163 W/m2
09:58 11.6 °C 8.1 °C 1016.1 hPa West 17.7 km/h 32.2 km/h 79 % 0 mm 171 W/m2
10:03 11.6 °C 8.1 °C 1016.1 hPa West 19.3 km/h 33.8 km/h 79 % 0 mm 190 W/m2
10:08 11.7 °C 8 °C 1016.1 hPa West 20.9 km/h 33.8 km/h 78 % 0 mm 257 W/m2
10:13 11.9 °C 8.2 °C 1016.5 hPa West 20.9 km/h 35.4 km/h 78 % 0 mm 230 W/m2
10:18 11.9 °C 8 °C 1016.5 hPa West 20.9 km/h 37 km/h 77 % 0 mm 214 W/m2
10:23 12.1 °C 8.2 °C 1016.5 hPa West 19.3 km/h 37 km/h 77 % 0 mm 327 W/m2
10:28 12.1 °C 8 °C 1016.8 hPa West 20.9 km/h 33.8 km/h 76 % 0 mm 248 W/m2
10:33 12.1 °C 8.2 °C 1016.8 hPa WSW 20.9 km/h 35.4 km/h 77 % 0 mm 237 W/m2
10:38 12.2 °C 8.1 °C 1016.8 hPa West 19.3 km/h 35.4 km/h 76 % 0 mm 179 W/m2
10:43 12.3 °C 8.4 °C 1016.8 hPa WSW 16.1 km/h 30.6 km/h 77 % 0 mm 272 W/m2
10:48 12.3 °C 8.4 °C 1016.8 hPa WSW 16.1 km/h 33.8 km/h 77 % 0 mm 330 W/m2
10:53 12.4 °C 8.5 °C 1016.8 hPa WSW 17.7 km/h 33.8 km/h 77 % 0 mm 366 W/m2
10:58 12.7 °C 8.8 °C 1016.8 hPa WSW 14.5 km/h 29 km/h 77 % 0 mm 394 W/m2
11:03 12.8 °C 8.5 °C 1017.2 hPa WSW 14.5 km/h 32.2 km/h 75 % 0 mm 345 W/m2
11:08 12.9 °C 8.4 °C 1017.2 hPa WSW 17.7 km/h 35.4 km/h 74 % 0 mm 313 W/m2
11:13 12.9 °C 8.4 °C 1017.2 hPa WSW 19.3 km/h 35.4 km/h 74 % 0 mm 364 W/m2
11:18 13.1 °C 8.6 °C 1017.2 hPa WSW 19.3 km/h 35.4 km/h 74 % 0 mm 429 W/m2
11:23 13.3 °C 8.8 °C 1017.2 hPa WSW 19.3 km/h 35.4 km/h 74 % 0 mm 418 W/m2
11:28 13.4 °C 8.7 °C 1017.5 hPa WSW 17.7 km/h 32.2 km/h 73 % 0 mm 352 W/m2
11:33 13.4 °C 8.4 °C 1017.5 hPa WSW 19.3 km/h 35.4 km/h 72 % 0 mm 334 W/m2
11:38 13.4 °C 8.7 °C 1017.5 hPa West 19.3 km/h 35.4 km/h 73 % 0 mm 466 W/m2
11:43 13.5 °C 8.6 °C 1017.5 hPa WSW 19.3 km/h 33.8 km/h 72 % 0 mm 385 W/m2
11:48 13.6 °C 8.4 °C 1017.5 hPa WSW 19.3 km/h 33.8 km/h 71 % 0 mm 211 W/m2
11:53 13.6 °C 8.7 °C 1017.5 hPa West 16.1 km/h 33.8 km/h 72 % 0 mm 213 W/m2
11:56 13.6 °C 8.4 °C 1017.5 hPa WSW 14.5 km/h 30.6 km/h 71 % 0 mm 216 W/m2
12:02 13.5 °C 8.1 °C 1017.5 hPa WSW 16.1 km/h 30.6 km/h 70 % 0 mm 211 W/m2
12:07 13.4 °C 8.1 °C 1017.8 hPa West 17.7 km/h 29 km/h 70 % 0 mm 179 W/m2
12:12 13.4 °C 7.8 °C 1017.8 hPa WSW 17.7 km/h 30.6 km/h 69 % 0 mm 197 W/m2
12:17 13.4 °C 7.8 °C 1017.8 hPa WSW 16.1 km/h 30.6 km/h 69 % 0 mm 188 W/m2
12:22 13.4 °C 7.8 °C 1017.8 hPa WSW 17.7 km/h 30.6 km/h 69 % 0 mm 197 W/m2
12:27 13.5 °C 7.9 °C 1017.8 hPa WSW 17.7 km/h 30.6 km/h 69 % 0 mm 239 W/m2
12:32 13.5 °C 7.9 °C 1017.8 hPa WSW 14.5 km/h 25.7 km/h 69 % 0 mm 255 W/m2
12:37 13.6 °C 8 °C 1017.8 hPa WSW 17.7 km/h 35.4 km/h 69 % 0 mm 206 W/m2
12:42 13.7 °C 8.3 °C 1017.5 hPa WSW 19.3 km/h 35.4 km/h 70 % 0 mm 570 W/m2
12:47 14 °C 8.2 °C 1017.5 hPa WSW 20.9 km/h 33.8 km/h 68 % 0 mm 469 W/m2
12:52 14.1 °C 8.3 °C 1017.5 hPa WSW 20.9 km/h 32.2 km/h 68 % 0 mm 229 W/m2
12:57 14 °C 8.2 °C 1017.5 hPa WSW 20.9 km/h 37 km/h 68 % 0 mm 237 W/m2
13:02 14.2 °C 8.4 °C 1017.5 hPa WSW 19.3 km/h 37 km/h 68 % 0 mm 348 W/m2
13:07 14.3 °C 8.1 °C 1017.5 hPa WSW 17.7 km/h 33.8 km/h 66 % 0 mm 269 W/m2
13:12 14.4 °C 8.1 °C 1017.8 hPa WSW 19.3 km/h 33.8 km/h 66 % 0 mm 366 W/m2
13:17 14.6 °C 8.3 °C 1017.5 hPa WSW 17.7 km/h 33.8 km/h 66 % 0 mm 299 W/m2
13:22 14.8 °C 8.5 °C 1017.8 hPa WSW 16.1 km/h 29 km/h 66 % 0 mm 675 W/m2
13:27 15 °C 8.4 °C 1017.5 hPa WSW 17.7 km/h 29 km/h 65 % 0 mm 522 W/m2
13:32 15.2 °C 8.4 °C 1017.5 hPa WSW 19.3 km/h 29 km/h 64 % 0 mm 631 W/m2
13:37 15.4 °C 8.6 °C 1017.5 hPa WSW 19.3 km/h 40.2 km/h 64 % 0 mm 413 W/m2
13:42 15.4 °C 8.4 °C 1017.5 hPa WSW 20.9 km/h 40.2 km/h 63 % 0 mm 671 W/m2
13:47 15.4 °C 8.6 °C 1017.5 hPa WSW 19.3 km/h 35.4 km/h 64 % 0 mm 570 W/m2
13:52 15.6 °C 8.6 °C 1017.5 hPa WSW 17.7 km/h 38.6 km/h 63 % 0 mm 564 W/m2
13:57 15.6 °C 8.6 °C 1017.5 hPa WSW 20.9 km/h 38.6 km/h 63 % 0 mm 649 W/m2
14:02 15.8 °C 8.8 °C 1017.5 hPa West 24.1 km/h 37 km/h 63 % 0 mm 680 W/m2
14:07 15.7 °C 8.7 °C 1017.5 hPa West 22.5 km/h 35.4 km/h 63 % 0 mm 450 W/m2
14:12 15.5 °C 8.5 °C 1017.5 hPa WSW 24.1 km/h 41.8 km/h 63 % 0 mm 311 W/m2
14:17 15.4 °C 8.4 °C 1017.5 hPa West 24.1 km/h 41.8 km/h 63 % 0 mm 229 W/m2
14:22 15.3 °C 8.3 °C 1017.5 hPa West 20.9 km/h 32.2 km/h 63 % 0 mm 250 W/m2
14:32 15.2 °C 8.7 °C 1017.5 hPa WSW 17.7 km/h 29 km/h 65 % 0 mm 218 W/m2
14:37 15.1 °C 8.6 °C 1017.2 hPa WSW 16.1 km/h 25.7 km/h 65 % 0 mm 251 W/m2
14:42 15.1 °C 8.6 °C 1017.5 hPa WSW 16.1 km/h 25.7 km/h 65 % 0 mm 190 W/m2
14:47 15.2 °C 8.9 °C 1017.5 hPa WSW 16.1 km/h 25.7 km/h 66 % 0 mm 148 W/m2
14:49 15.2 °C 8.9 °C 1017.2 hPa WSW 16.1 km/h 25.7 km/h 66 % 0 mm 144 W/m2
14:54 15.2 °C 8.7 °C 1017.5 hPa WSW 16.1 km/h 25.7 km/h 65 % 0 mm 165 W/m2
14:59 15.1 °C 8.6 °C 1017.2 hPa WSW 17.7 km/h 25.7 km/h 65 % 0 mm 230 W/m2
15:04 15.1 °C 9 °C 1017.2 hPa WSW 16.1 km/h 25.7 km/h 67 % 0 mm 257 W/m2
15:09 15.1 °C 8.8 °C 1017.2 hPa WSW 11.3 km/h 20.9 km/h 66 % 0 mm 274 W/m2
15:14 15.3 °C 9 °C 1017.2 hPa WSW 12.9 km/h 22.5 km/h 66 % 0 mm 285 W/m2
15:19 15.3 °C 9 °C 1017.2 hPa WSW 16.1 km/h 22.5 km/h 66 % 0 mm 338 W/m2
15:24 15.5 °C 9.4 °C 1017.5 hPa WSW 14.5 km/h 25.7 km/h 67 % 0 mm 248 W/m2
15:29 15.6 °C 8.8 °C 1017.2 hPa WSW 16.1 km/h 30.6 km/h 64 % 0 mm 188 W/m2
15:34 15.5 °C 8.9 °C 1017.5 hPa WSW 16.1 km/h 30.6 km/h 65 % 0 mm 155 W/m2
15:39 15.3 °C 8.8 °C 1017.5 hPa WSW 16.1 km/h 32.2 km/h 65 % 0 mm 144 W/m2
15:44 15.2 °C 8.9 °C 1017.5 hPa WSW 16.1 km/h 32.2 km/h 66 % 0 mm 130 W/m2
15:49 15.1 °C 9 °C 1017.5 hPa WSW 16.1 km/h 25.7 km/h 67 % 0 mm 114 W/m2
15:54 15.1 °C 9 °C 1017.2 hPa WSW 12.9 km/h 25.7 km/h 67 % 0 mm 93 W/m2
15:59 15 °C 9.1 °C 1017.2 hPa WSW 8 km/h 22.5 km/h 68 % 0 mm 107 W/m2
16:04 15.1 °C 9.2 °C 1017.5 hPa West 6.4 km/h 11.3 km/h 68 % 0 mm 113 W/m2
16:09 15.1 °C 9.2 °C 1017.5 hPa West 4.8 km/h 11.3 km/h 68 % 0 mm 130 W/m2
16:14 15.1 °C 9.4 °C 1017.5 hPa West 3.2 km/h 14.5 km/h 69 % 0 mm 135 W/m2
16:19 15.1 °C 9.2 °C 1017.2 hPa WSW 8 km/h 20.9 km/h 68 % 0 mm 153 W/m2
16:24 15.1 °C 9 °C 1017.2 hPa WSW 12.9 km/h 22.5 km/h 67 % 0 mm 158 W/m2
16:29 15.1 °C 9 °C 1017.2 hPa WSW 12.9 km/h 22.5 km/h 67 % 0 mm 148 W/m2
16:30 15.1 °C 9 °C 1017.2 hPa West 12.9 km/h 22.5 km/h 67 % 0 mm 130 W/m2
16:35 15.1 °C 9 °C 1016.8 hPa West 12.9 km/h 22.5 km/h 67 % 0 mm 125 W/m2
16:40 15.1 °C 9 °C 1016.8 hPa WSW 11.3 km/h 22.5 km/h 67 % 0 mm 125 W/m2
16:45 15 °C 8.9 °C 1016.8 hPa WSW 8 km/h 16.1 km/h 67 % 0 mm 116 W/m2
16:50 15 °C 8.9 °C 1016.8 hPa WSW 8 km/h 19.3 km/h 67 % 0 mm 95 W/m2
16:55 14.9 °C 8.8 °C 1016.8 hPa WSW 9.7 km/h 20.9 km/h 67 % 0 mm 81 W/m2
17:00 14.9 °C 9.1 °C 1016.8 hPa WSW 8 km/h 20.9 km/h 68 % 0 mm 74 W/m2
17:06 14.9 °C 9.3 °C 1016.8 hPa West 1.6 km/h 12.9 km/h 69 % 0 mm 67 W/m2
17:11 14.8 °C 9.4 °C 1016.8 hPa SSE 1.6 km/h 9.7 km/h 70 % 0 mm 63 W/m2
17:16 14.8 °C 9.2 °C 1016.8 hPa West 3.2 km/h 9.7 km/h 69 % 0 mm 62 W/m2
17:21 14.7 °C 9.1 °C 1016.8 hPa West 3.2 km/h 8 km/h 69 % 0 mm 53 W/m2
17:26 14.7 °C 9.1 °C 1016.8 hPa SW 3.2 km/h 19.3 km/h 69 % 0 mm 44 W/m2
17:31 14.6 °C 9 °C 1016.8 hPa SW 6.4 km/h 20.9 km/h 69 % 0 mm 37 W/m2
17:36 14.5 °C 8.9 °C 1016.8 hPa SW 6.4 km/h 19.3 km/h 69 % 0 mm 32 W/m2
17:41 14.4 °C 8.8 °C 1016.8 hPa SW 4.8 km/h 16.1 km/h 69 % 0 mm 28 W/m2
17:46 14.3 °C 8.7 °C 1016.8 hPa SW 4.8 km/h 16.1 km/h 69 % 0 mm 26 W/m2
17:51 14.3 °C 8.7 °C 1016.8 hPa SSW 6.4 km/h 22.5 km/h 69 % 0 mm 21 W/m2
17:56 14.2 °C 8.8 °C 1016.8 hPa SSW 3.2 km/h 22.5 km/h 70 % 0 mm 16 W/m2
18:01 14.1 °C 8.5 °C 1016.8 hPa SE 4.8 km/h 16.1 km/h 69 % 0 mm 11 W/m2
18:06 14.1 °C 8.7 °C 1016.8 hPa SE 6.4 km/h 16.1 km/h 70 % 0 mm 7 W/m2
18:11 14.1 °C 8.7 °C 1016.8 hPa SSE 4.8 km/h 16.1 km/h 70 % 0 mm 0 W/m2
18:16 14.1 °C 8.7 °C 1017.2 hPa SSW 3.2 km/h 14.5 km/h 70 % 0 mm 0 W/m2
18:21 14 °C 8.8 °C 1016.8 hPa SW 4.8 km/h 17.7 km/h 71 % 0 mm 0 W/m2
18:26 13.9 °C 8.7 °C 1016.8 hPa SSW 6.4 km/h 17.7 km/h 71 % 0 mm 0 W/m2
18:31 13.9 °C 8.9 °C 1016.8 hPa South 3.2 km/h 11.3 km/h 72 % 0 mm 0 W/m2
18:36 13.8 °C 8.8 °C 1016.8 hPa South 3.2 km/h 9.7 km/h 72 % 0 mm 0 W/m2
18:41 13.7 °C 8.7 °C 1016.8 hPa SSW 3.2 km/h 16.1 km/h 72 % 0 mm 0 W/m2
18:46 13.6 °C 8.8 °C 1016.8 hPa SW 1.6 km/h 16.1 km/h 73 % 0 mm 0 W/m2
18:51 13.4 °C 8.8 °C 1016.8 hPa SE 1.6 km/h 6.4 km/h 74 % 0 mm 0 W/m2
18:56 13.3 °C 8.9 °C 1016.8 hPa SE 3.2 km/h 9.7 km/h 75 % 0 mm 0 W/m2
19:01 13.2 °C 8.9 °C 1016.8 hPa SE 3.2 km/h 9.7 km/h 75 % 0 mm 0 W/m2
19:06 13.2 °C 9.1 °C 1016.8 hPa SE 3.2 km/h 12.9 km/h 76 % 0 mm 0 W/m2
19:11 13.1 °C 9.2 °C 1016.8 hPa SE 3.2 km/h 12.9 km/h 77 % 0 mm 0 W/m2
19:16 13 °C 9.1 °C 1016.8 hPa ESE 4.8 km/h 11.3 km/h 77 % 0 mm 0 W/m2
19:21 12.9 °C 8.9 °C 1016.8 hPa ESE 4.8 km/h 11.3 km/h 77 % 0 mm 0 W/m2
19:26 12.9 °C 9.2 °C 1016.8 hPa ESE 4.8 km/h 9.7 km/h 78 % 0 mm 0 W/m2
19:31 12.9 °C 9.2 °C 1016.8 hPa ESE 6.4 km/h 11.3 km/h 78 % 0 mm 0 W/m2
19:36 12.9 °C 9.2 °C 1016.8 hPa ESE 8 km/h 12.9 km/h 78 % 0 mm 0 W/m2
19:41 13 °C 9.3 °C 1016.8 hPa ESE 8 km/h 14.5 km/h 78 % 0 mm 0 W/m2
19:46 13 °C 9.3 °C 1016.8 hPa SE 8 km/h 14.5 km/h 78 % 0 mm 0 W/m2
19:51 13 °C 9.3 °C 1016.5 hPa SE 6.4 km/h 14.5 km/h 78 % 0 mm 0 W/m2
19:56 13.1 °C 9.2 °C 1016.5 hPa South 6.4 km/h 19.3 km/h 77 % 0 mm 0 W/m2
20:01 13.2 °C 9.1 °C 1016.5 hPa SW 9.7 km/h 19.3 km/h 76 % 0 mm 0 W/m2
20:06 13.3 °C 8.8 °C 1016.5 hPa SW 11.3 km/h 24.1 km/h 74 % 0 mm 0 W/m2
20:11 13.3 °C 8.8 °C 1016.5 hPa SW 8 km/h 24.1 km/h 74 % 0 mm 0 W/m2
20:16 13.3 °C 8.6 °C 1016.5 hPa WSW 4.8 km/h 14.5 km/h 73 % 0 mm 0 W/m2
20:21 13.3 °C 8.6 °C 1016.5 hPa WSW 3.2 km/h 12.9 km/h 73 % 0 mm 0 W/m2
20:26 13.2 °C 8.7 °C 1016.5 hPa WSW 3.2 km/h 17.7 km/h 74 % 0 mm 0 W/m2
20:31 13.1 °C 8.6 °C 1016.5 hPa SW 3.2 km/h 17.7 km/h 74 % 0 mm 0 W/m2
20:36 13.1 °C 8.6 °C 1016.5 hPa ESE 3.2 km/h 9.7 km/h 74 % 0 mm 0 W/m2
20:41 13.1 °C 8.6 °C 1016.5 hPa East 4.8 km/h 9.7 km/h 74 % 0 mm 0 W/m2
20:46 13 °C 8.7 °C 1016.5 hPa ESE 4.8 km/h 11.3 km/h 75 % 0 mm 0 W/m2
20:51 13 °C 8.7 °C 1016.5 hPa SE 6.4 km/h 16.1 km/h 75 % 0 mm 0 W/m2
20:56 13 °C 8.9 °C 1016.5 hPa SSE 8 km/h 16.1 km/h 76 % 0 mm 0 W/m2
21:01 13 °C 8.9 °C 1016.5 hPa SSE 8 km/h 12.9 km/h 76 % 0 mm 0 W/m2
21:07 12.9 °C 8.8 °C 1016.5 hPa SSE 8 km/h 14.5 km/h 76 % 0 mm 0 W/m2
21:11 13 °C 8.9 °C 1016.5 hPa South 9.7 km/h 17.7 km/h 76 % 0 mm 0 W/m2
21:17 13.1 °C 8.9 °C 1016.1 hPa SSW 11.3 km/h 24.1 km/h 76 % 0 mm 0 W/m2
21:22 13.1 °C 8.9 °C 1016.5 hPa SSW 12.9 km/h 24.1 km/h 76 % 0 mm 0 W/m2
21:27 13.1 °C 8.9 °C 1016.5 hPa SSW 12.9 km/h 22.5 km/h 76 % 0 mm 0 W/m2
21:32 13.2 °C 9.1 °C 1016.1 hPa SW 14.5 km/h 29 km/h 76 % 0 mm 0 W/m2
21:37 13.2 °C 9.1 °C 1016.1 hPa SW 17.7 km/h 29 km/h 76 % 0 mm 0 W/m2
21:42 13.3 °C 9.2 °C 1016.1 hPa SW 22.5 km/h 38.6 km/h 76 % 0 mm 0 W/m2
21:47 13.4 °C 9.3 °C 1016.1 hPa SW 20.9 km/h 38.6 km/h 76 % 0 mm 0 W/m2
21:52 13.4 °C 9.3 °C 1016.5 hPa SW 19.3 km/h 30.6 km/h 76 % 0 mm 0 W/m2
21:57 13.4 °C 9.3 °C 1016.5 hPa SW 20.9 km/h 32.2 km/h 76 % 0 mm 0 W/m2
22:02 13.4 °C 9.3 °C 1016.5 hPa SW 19.3 km/h 32.2 km/h 76 % 0 mm 0 W/m2
22:07 13.4 °C 9.3 °C 1016.1 hPa SW 17.7 km/h 29 km/h 76 % 0 mm 0 W/m2
22:12 13.4 °C 9.3 °C 1016.1 hPa SSW 16.1 km/h 29 km/h 76 % 0 mm 0 W/m2
22:17 13.4 °C 9.3 °C 1016.1 hPa SSW 16.1 km/h 30.6 km/h 76 % 0 mm 0 W/m2
22:22 13.4 °C 9.4 °C 1016.5 hPa SSW 16.1 km/h 30.6 km/h 77 % 0 mm 0 W/m2
22:27 13.4 °C 9.4 °C 1016.5 hPa SSW 14.5 km/h 22.5 km/h 77 % 0 mm 0 W/m2
22:32 13.4 °C 9.4 °C 1016.5 hPa SSW 12.9 km/h 20.9 km/h 77 % 0 mm 0 W/m2
22:37 13.4 °C 9.4 °C 1016.5 hPa South 9.7 km/h 17.7 km/h 77 % 0 mm 0 W/m2
22:42 13.4 °C 9.4 °C 1016.5 hPa South 9.7 km/h 17.7 km/h 77 % 0 mm 0 W/m2
22:47 13.3 °C 9.6 °C 1016.5 hPa SSE 8 km/h 16.1 km/h 78 % 0 mm 0 W/m2
22:48 13.3 °C 9.6 °C 1016.5 hPa SSE 8 km/h 16.1 km/h 78 % 0 mm 0 W/m2
22:53 13.4 °C 9.7 °C 1016.1 hPa South 9.7 km/h 16.1 km/h 78 % 0 mm 0 W/m2
22:58 13.4 °C 9.8 °C 1016.1 hPa South 9.7 km/h 16.1 km/h 79 % 0 mm 0 W/m2
23:03 13.4 °C 9.8 °C 1016.1 hPa South 8 km/h 16.1 km/h 79 % 0 mm 0 W/m2
23:08 13.4 °C 10 °C 1016.1 hPa SSW 8 km/h 16.1 km/h 80 % 0 mm 0 W/m2
23:13 13.4 °C 10 °C 1016.1 hPa South 4.8 km/h 14.5 km/h 80 % 0 mm 0 W/m2
23:18 13.5 °C 10.3 °C 1016.1 hPa South 4.8 km/h 14.5 km/h 81 % 0 mm 0 W/m2
23:23 13.6 °C 10.4 °C 1015.8 hPa SSW 3.2 km/h 11.3 km/h 81 % 0 mm 0 W/m2
23:28 13.6 °C 10.6 °C 1015.8 hPa SW 6.4 km/h 17.7 km/h 82 % 0 mm 0 W/m2
23:33 13.8 °C 10.9 °C 1015.8 hPa SW 11.3 km/h 22.5 km/h 83 % 0 mm 0 W/m2
23:38 13.8 °C 10.8 °C 1015.5 hPa SW 9.7 km/h 22.5 km/h 82 % 0 mm 0 W/m2
23:43 13.8 °C 10.9 °C 1015.8 hPa SW 6.4 km/h 14.5 km/h 83 % 0 mm 0 W/m2
23:44 13.9 °C 11.1 °C 1015.8 hPa SW 4.8 km/h 14.5 km/h 83 % 0 mm 0 W/m2
23:49 13.9 °C 11.1 °C 1015.8 hPa WSW 6.4 km/h 16.1 km/h 83 % 0 mm 0 W/m2
23:54 13.9 °C 11.1 °C 1015.5 hPa SW 9.7 km/h 16.1 km/h 83 % 0 mm 0 W/m2
23:59 13.9 °C 11.1 °C 1015.5 hPa SW 9.7 km/h 16.1 km/h 83 % 0 mm 0 W/m2
Delerius-Weather
Compliments of Weather Underground - 2.25 mb

Data updates at regular intervals.